Home   Weather   Redmond   Past weeks

Flag for USA Past Weather in Redmond, Washington, USA — Yesterday and Last 2 Weeks

Now
35 °F

Mostly cloudy.


Feels Like: 27 °F
Forecast: 37 / 43 °F
Wind: 12 mph from Southeast

Location: Seattle Boeing Field

Current Time: Dec 9, 2016 at 11:10:09 pm

Latest Report: Dec 9, 2016 at 10:53 pm


Visibility: 10 mi

Pressure: 29.83 "Hg

Humidity: 100%

Dew Point: 35 °F

Location of RedmondLocation

Past Weather in Redmond — Graph

°F

Redmond Temperature Yesterday

Maximum temperature yesterday: 40 °F (at 12:53 pm)
Minimum temperature yesterday: 31 °F (at 10:00 pm)
Average temperature yesterday: 35 °F

High & Low Weather Summary for the Past Weeks

 TemperatureHumidityPressure
High52 °F (Nov 25, 1:53 pm)100% (Nov 25, 8:53 am)30.44 "Hg (Nov 25, 8:53 am)
Low27 °F (Dec 7, 3:53 am)30% (Dec 8, 1:53 pm)29.41 "Hg (Nov 26, 2:53 pm)
Average42 °F85%30.03 "Hg
* Reported Nov 24 9:53 pm — Dec 9 9:53 pm, Redmond, Weather by CustomWeather, © 2016

Note: Actual official high and low records may vary slightly from our data, if they occured in-between our weather recording intervals... More about our weather records

Advertising

Redmond Weather History for the Previous 24 Hours

Scroll right to see more
 ConditionsComfort  
Time TempWeatherWind HumidityBarometerVisibility
9:53 pm
Fri, Dec 9
35 °FLight rain. Overcast.9 mph100%29.84 "Hg8 mi
8:53 pm35 °FLight rain. Fog.8 mph96%29.83 "Hg5 mi
7:53 pm36 °FLight rain. Overcast.7 mph89%29.83 "Hg10 mi
7:00 pm36 °FLight rain. Overcast.7 mph89%29.85 "Hg10 mi
5:53 pm35 °FLight rain. Overcast.12 mph92%29.88 "Hg10 mi
4:53 pm35 °FMostly cloudy.8 mph92%29.90 "Hg10 mi
3:53 pm35 °FOvercast.13 mph92%29.93 "Hg10 mi
2:53 pm35 °FLight rain. Overcast.10 mph96%29.95 "Hg9 mi
1:53 pm36 °FMostly cloudy.10 mph92%29.95 "Hg10 mi
12:53 pm35 °FLight rain. Mostly cloudy.8 mph96%29.97 "Hg10 mi
11:53 am34 °FCloudy.15 mph100%29.98 "Hg10 mi
10:53 am34 °FLight rain. More clouds than sun.9 mph97%30.00 "Hg7 mi
9:53 am34 °FLight rain. Overcast.9 mph97%30.00 "Hg10 mi
8:53 am34 °FLight rain. Fog.9 mph92%29.99 "Hg5 mi
7:53 am34 °FLight rain. Fog.9 mph97%29.99 "Hg4 mi
6:53 am34 °FOvercast.8 mph92%29.98 "Hg10 mi
5:53 am34 °FLight snow. Mostly cloudy.12 mph88%29.97 "Hg10 mi
4:53 am34 °FOvercast.9 mph88%29.97 "Hg9 mi
3:53 am33 °FLight snow. Fog.No wind92%29.99 "Hg4 mi
2:53 am32 °FLight snow. Ice fog.No wind100%29.99 "Hg4 mi
1:53 am32 °FLight snow. Ice fog.No wind100%29.99 "Hg3 mi
12:53 am31 °FLight snow. Ice fog.5 mph100%29.98 "Hg2 mi
11:53 pm
Thu, Dec 8
31 °FLight snow. Ice fog.3 mph96%29.98 "Hg2 mi
Weather by CustomWeather, © 2016

See weather overviewHow to use our weather pages